Marshfield, WI

11:46 PM CDT on April 23, 2017 (GMT -0500)
Marshfield Municipal

Weather History for KMFI - April, 2013

Change the Weather History Date:

Thursday, April 4, 2013

  Actual Average Record
Temperature  
Mean Temperature 38 °F -  
Max Temperature 46 °F 47 °F 78 °F (1929)
Min Temperature 30 °F 27 °F 5 °F (1972)
Degree Days  
Heating Degree Days 28    
Moisture  
Dew Point 24 °F    
Average Humidity 59    
Maximum Humidity 67    
Minimum Humidity 51    
Precipitation  
Precipitation 0.00 in - - ()
Sea Level Pressure  
Sea Level Pressure 30.06 in    
Wind  
Wind Speed 11 mph (West)    
Max Wind Speed 15 mph    
Max Gust Speed 22 mph    
Visibility 10 miles    
Events      
Averages and records for this station are not official NWS values.
T = Trace of Precipitation, MM = Missing Value Source: NWS Daily Summary

Daily Weather History Graph

Daily Weather History Graph

Search for Another Location

Airport or City:

Trip Planner

Search our weather history database for the weather conditions in past years. The results will help you decide how hot, cold, wet, or windy it might be!

Date:

Astronomy

Apr. 04, 2013 Rise Set
Actual Time 6:35 AM CDT 7:32 PM CDT
Civil Twilight 6:06 AM CDT 8:02 PM CDT
Nautical Twilight 5:30 AM CDT 8:37 PM CDT
Astronomical Twilight 4:53 AM CDT 9:14 PM CDT
Moon 3:16 AM CDT (4/4) 1:37 PM CDT (4/4)
Length of Visible Light 13h 56m
Length of Day
12h 56m
Waning Crescent, 33% of the Moon is Illuminated
Apr 4
Waning Crescent
Apr 10
New
Apr 18
First Quarter
Apr 25
Full
May 2
Last Quarter

Hourly Weather History & Observations

Time (CDT) Temp. Windchill Dew Point Humidity Pressure Visibility Wind Dir Wind Speed Gust Speed Precip Events Conditions
12:54 AM 32.0 °F 23.0 °F 19.0 °F 59% 30.18 in 10.0 mi SSW 11.5 mph - N/A   Clear
1:54 AM 32.0 °F 22.5 °F 19.0 °F 59% 30.15 in 10.0 mi SSW 12.7 mph - N/A   Clear
2:54 AM 30.9 °F 21.7 °F 19.0 °F 61% 30.12 in 10.0 mi SSW 11.5 mph - N/A   Clear
3:54 AM 30.9 °F 23.5 °F 18.0 °F 59% 30.12 in 10.0 mi SW 8.1 mph - N/A   Clear
4:54 AM 30.0 °F 21.1 °F 19.0 °F 64% 30.09 in 10.0 mi SW 10.4 mph - N/A   Clear
5:54 AM 30.9 °F 21.7 °F 19.9 °F 64% 30.06 in 10.0 mi SSW 11.5 mph - N/A   Mostly Cloudy
6:54 AM 30.9 °F 23.5 °F 19.9 °F 64% 30.06 in 10.0 mi SW 8.1 mph - N/A   Mostly Cloudy
7:54 AM 35.1 °F 26.9 °F 21.0 °F 57% 30.05 in 10.0 mi SW 11.5 mph 17.3 mph N/A   Mostly Cloudy
8:54 AM 37.9 °F 29.2 °F 24.1 °F 57% 30.04 in 10.0 mi WSW 15.0 mph 21.9 mph N/A   Mostly Cloudy
9:54 AM 39.0 °F 31.4 °F 25.0 °F 57% 30.03 in 10.0 mi WSW 12.7 mph - N/A   Overcast
10:54 AM 39.9 °F 33.4 °F 27.0 °F 60% 30.03 in 10.0 mi West 10.4 mph - 0.00 in   Overcast
11:54 AM 39.0 °F 32.3 °F 28.9 °F 67% 30.03 in 10.0 mi WSW 10.4 mph - 0.00 in   Overcast
12:54 PM 42.1 °F 37.7 °F 30.0 °F 62% 30.03 in 10.0 mi West 6.9 mph - N/A   Scattered Clouds
1:54 PM 44.1 °F 38.1 °F 30.9 °F 60% 30.01 in 10.0 mi West 11.5 mph - N/A   Clear
2:54 PM 45.0 °F 38.9 °F 30.0 °F 56% 30.01 in 10.0 mi WNW 12.7 mph - N/A   Clear
3:54 PM 45.0 °F 40.6 °F 32.0 °F 60% 30.00 in 10.0 mi NW 8.1 mph - N/A   Clear
4:54 PM 45.0 °F 38.5 °F 28.0 °F 52% 30.01 in 10.0 mi WNW 13.8 mph 19.6 mph N/A   Clear
5:54 PM 43.0 °F 36.4 °F 26.1 °F 51% 30.02 in 10.0 mi WNW 12.7 mph - N/A   Clear
6:54 PM 42.1 °F 37.1 °F 26.1 °F 53% 30.03 in 10.0 mi WNW 8.1 mph - N/A   Clear
7:54 PM 39.0 °F 34.8 °F 25.0 °F 57% 30.03 in 10.0 mi WNW 5.8 mph - N/A   Clear
8:54 PM 37.0 °F 29.8 °F 26.1 °F 65% 30.06 in 10.0 mi NW 10.4 mph - N/A   Clear
9:54 PM 35.1 °F 27.9 °F 24.1 °F 64% 30.08 in 10.0 mi NW 9.2 mph - N/A   Clear
10:54 PM 35.1 °F 28.6 °F 21.9 °F 59% 30.09 in 10.0 mi North 8.1 mph - N/A   Clear
11:54 PM 34.0 °F 31.0 °F 19.9 °F 56% 30.12 in 10.0 mi North 3.5 mph - N/A   Clear